EHI
0 0 0 0 0 0 0 0 0 0 0 0 0 0 0 0 0 1 2 1 0 0 0 0 0 1 2 3 2 1 0 0 0 1 2 3 3 3 2 1 0 0 0 0
0 0 0 0 0 0 0 0 0 0 0 0 1 1 1 1 1 2 2 1 0 0 0 0 1 2 2 3 2 1 0 0 0 1 2 3 3 3 3 1 0 0 0 0
0 0 0 0 0 0 0 0 0 0 0 1 2 3 3 3 3 3 3 2 0 0 0 0 2 4 4 3 2 1 0 0 0 0 1 2 3 3 3 2 1 0 0 0
0 0 0 0 0 0 1 1 1 0 0 1 3 5 4 3 2 2 3 3 2 1 1 1 2 4 4 3 2 1 0 0 0 0 0 1 2 3 3 3 2 1 0 0
0 0 0 0 0 0 1 2 1 0 0 1 3 3 3 2 2 2 2 3 2 2 2 2 2 3 3 2 1 0 0 0 0 0 0 0 1 2 3 3 3 1 0 0
0 0 0 0 0 0 0 1 1 0 0 1 1 1 1 1 1 1 1 2 2 1 1 1 1 2 2 1 0 0 0 0 0 0 0 0 0 1 3 3 2 1 0 0
0 0 0 0 0 0 0 0 0 0 0 0 0 0 0 0 0 0 0 2 2 1 0 0 1 2 2 1 0 0 0 0 0 0 0 0 0 1 2 2 1 1 0 0
0 0 0 0 0 0 0 0 0 0 0 0 0 0 0 0 0 0 0 1 1 1 0 0 1 2 2 1 0 0 0 0 0 0 0 0 0 0 1 1 0 0 0 0
0 0 0 0 0 0 0 0 0 0 0 0 0 0 0 0 0 0 0 0 0 0 0 0 0 1 1 1 0 0 0 0 0 0 0 0 0 0 0 0 0 0 0 0
0 0 0 0 0 0 0 0 0 0 0 0 0 0 0 0 0 0 0 0 0 0 0 0 0 0 0 0 0 0 0 0 0 0 0 0 0 0 0 0 0 0 0 0
0 0 0 0 0 0 0 0 0 0 0 0 0 0 0 0 0 0 0 0 0 0 0 0 0 0 0 0 0 0 0 0 0 0 0 0 0 0 0 0 0 0 0 0
0 0 0 0 0 0 0 0 0 0 0 0 0 0 0 0 0 0 0 0 0 0 0 0 0 0 0 0 0 0 0 0 0 0 0 0 0 0 0 0 0 0 0 0
0 0 0 0 0 0 0 0 0 0 0 0 0 0 0 0 0 0 0 0 0 0 0 0 0 0 0 0 0 0 0 0 0 0 0 0 0 0 0 0 0 0 0 0
0 0 0 0 0 0 0 0 0 0 0 0 0 0 0 0 0 0 0 0 0 0 0 0 0 0 0 0 0 0 0 0 0 0 0 0 0 0 0 0 0 0 0 0
0 0 0 0 0 0 0 0 0 0 0 0 0 0 0 0 0 0 0 0 0 0 0 0 0 0 0 0 0 0 0 0 0 0 0 0 0 0 0 0 0 0 0 0
0 0 0 0 0 0 0 0 0 0 0 0 0 0 0 0 0 0 0 0 0 0 0 0 0 0 0 0 0 0 0 0 0 0 0 0 0 0 0 0 0 0 0 0
0 0 0 0 0 0 0 0 0 0 0 0 0 0 0 0 0 0 0 0 0 0 0 0 0 0 0 0 0 0 0 0 0 0 0 0 0 0 0 0 0 0 0 0
0 0 0 0 0 0 0 0 0 0 0 0 0 0 0 0 0 0 0 0 0 0 0 0 0 0 0 0 0 0 0 0 0 0 0 0 0 0 0 0 0 0 0 0
0 0 0 0 0 0 0 0 0 0 0 0 0 0 0 0 0 0 0 0 0 0 0 0 0 0 0 0 0 0 0 0 0 0 0 0 0 0 0 0 0 0 0 0
0 0 0 0 0 0 0 0 0 0 0 0 0 0 0 0 0 0 0 0 0 0 0 0 0 0 0 0 0 0 0 0 0 0 0 0 0 0 0 0 0 0 0 0
0 0 0 0 0 0 0 0 0 0 0 0 0 0 0 0 0 0 0 0 0 0 0 0 0 0 0 0 0 0 0 0 0 0 0 0 0 0 0 0 0 0 0 0
0 0 0 0 0 0 0 0 0 0 0 0 0 0 0 0 0 0 0 0 0 0 0 0 0 0 0 0 0 0 0 0 0 0 0 0 0 0 0 0 0 0 0 0
0 0 0 0 0 0 0 0 0 0 0 0 0 0 0 0 0 0 0 0 0 0 0 0 0 0 0 0 0 0 0 0 0 0 0 0 0 0 0 0 0 0 0 0
0 0 0 0 0 0 0 0 0 0 0 0 0 0 0 0 0 0 0 0 0 0 0 0 0 0 0 0 0 0 0 0 0 0 0 0 0 0 0 0 0 0 0 0
0 0 0 0 0 0 0 0 0 0 0 0 0 0 0 0 0 0 0 0 0 0 0 0 0 0 0 0 0 0 0 0 0 0 0 0 0 0 0 0 0 0 0 0
0 0 0 0 0 0 0 0 0 0 0 0 0 0 0 0 0 0 0 0 0 0 0 0 0 0 0 0 0 0 0 0 0 0 0 0 0 0 0 0 0 0 0 0
0 0 0 0 0 0 0 0 0 0 0 0 0 0 0 0 0 0 0 0 0 0 0 0 0 0 0 0 0 0 0 0 0 0 0 0 0 0 0 0 0 0 0 0
Wind_Speed
3 3 3 3 4 5 4 7 8 7 6 7 5 3 2 2 3 4 5 5 6 6 5 4 5 4 4 4 5 5 6 6 6 6 5 5 5 5 5 5 5 5 6 5
2 1 3 2 2 4 3 4 3 3 5 3 1 1 1 2 3 3 4 4 5 5 5 5 5 5 5 5 5 6 6 6 6 6 6 6 6 7 7 6 6 6 6 6
1 1 3 1 1 3 2 1 4 5 5 0 1 1 1 1 2 2 3 3 4 5 4 4 5 5 6 5 5 6 6 6 6 7 7 7 7 8 7 7 7 7 7 7
3 2 4 5 2 3 5 1 0 1 0 2 2 2 2 2 2 2 3 3 3 3 4 4 4 4 5 5 5 6 6 5 6 7 7 7 8 8 7 7 7 7 7 8
4 4 1 2 0 2 3 0 1 2 3 3 3 2 3 3 3 2 2 3 3 3 3 4 5 5 6 6 5 6 6 5 6 7 8 8 8 8 8 8 8 8 7 8
5 5 7 6 1 1 4 1 2 3 4 3 2 1 2 3 4 4 3 2 3 3 4 5 4 5 6 6 6 6 6 5 6 7 8 9 10 9 8 8 9 9 9 8
4 3 4 2 3 0 4 6 2 2 3 3 2 2 1 3 4 3 3 3 4 4 4 3 4 6 6 6 5 5 7 8 8 8 9 10 10 9 9 9 10 10 11 9
4 3 6 2 1 4 5 1 1 2 2 3 2 2 3 3 3 4 4 5 4 4 4 3 4 6 6 5 5 7 8 9 9 9 9 10 11 10 10 10 11 10 10 9
5 5 2 1 1 1 1 1 1 1 2 3 3 2 2 3 3 4 5 5 4 5 5 5 4 5 7 5 7 9 10 10 10 11 10 10 11 11 9 9 9 8 8 8
1 2 1 1 1 2 1 1 0 1 2 3 3 3 3 3 3 4 5 5 5 6 6 6 5 6 7 7 8 10 11 11 11 12 11 10 8 7 8 8 8 8 8 7
1 1 0 1 1 1 2 2 3 2 2 3 5 5 4 4 4 4 5 5 5 6 7 7 7 8 8 8 10 12 12 11 11 11 11 12 11 9 9 7 7 8 7 6
5 5 4 2 0 1 1 1 2 3 3 3 4 6 6 5 4 5 6 6 6 7 8 8 9 9 8 8 10 13 12 11 9 9 9 10 12 13 18 15 17 15 12 10
3 2 3 2 2 1 2 2 4 5 5 5 5 7 8 7 6 7 7 8 8 9 9 9 10 10 9 8 10 12 12 11 9 9 9 10 10 11 12 13 17 16 13 13
3 4 3 2 2 3 4 5 7 7 6 6 6 8 8 9 8 9 8 8 9 10 10 10 11 10 9 10 12 13 13 13 11 9 9 9 9 9 9 10 9 7 9 11
1 2 4 4 5 5 5 6 8 8 8 8 8 8 9 10 10 9 8 8 10 11 10 10 11 10 9 10 13 13 11 9 9 9 9 9 9 9 9 9 8 7 6 7
4 5 6 6 7 6 6 7 8 8 8 9 9 9 10 10 10 9 8 9 11 11 10 10 10 9 9 11 12 10 10 16 12 9 9 9 8 8 8 8 7 6 6 5
8 7 7 7 7 7 7 7 8 9 9 10 10 10 11 11 11 10 10 10 10 10 9 9 9 8 8 9 10 9 9 11 14 10 8 8 7 7 7 7 6 5 4 4
5 5 6 8 8 9 9 9 9 10 10 10 11 10 11 11 11 10 9 10 11 10 8 7 8 8 9 9 8 8 8 7 7 8 7 7 6 6 6 6 6 6 4 4
7 8 8 8 9 10 10 10 10 10 10 10 11 11 10 10 9 9 9 10 10 9 5 6 10 9 8 9 10 7 8 9 8 7 7 8 7 6 6 6 6 5 5 4
9 10 10 10 10 11 11 10 10 10 9 10 11 11 10 9 9 9 9 8 5 4 5 7 8 8 7 8 10 7 8 8 8 7 7 6 6 6 5 5 5 5 4 3
11 12 12 12 11 11 11 11 11 10 9 9 10 11 10 9 8 8 8 7 4 4 6 9 6 6 6 7 9 7 7 7 7 7 7 6 6 6 5 5 4 4 4 3
11 11 12 12 11 10 9 9 10 11 10 10 10 10 10 9 8 7 6 4 4 6 5 5 5 6 8 8 6 7 7 7 6 6 6 6 6 5 5 5 4 4 3 3
9 10 11 11 11 10 9 8 9 9 9 9 9 9 8 6 5 6 4 2 3 6 5 4 7 11 11 7 6 6 7 7 6 5 5 5 5 5 5 5 4 4 3 3
10 10 10 10 10 11 10 8 7 7 8 7 7 7 7 6 4 3 3 6 7 7 5 6 10 11 10 5 5 6 5 5 5 5 5 4 4 4 4 4 4 3 3 4
10 10 10 11 9 8 8 9 9 8 8 6 6 5 4 4 4 4 4 6 8 8 5 6 10 10 6 5 5 5 5 5 5 5 5 5 4 4 4 4 4 4 4 4
9 7 7 6 6 6 6 6 6 5 5 5 4 4 4 4 5 5 4 5 7 7 5 4 4 5 4 4 4 5 4 5 5 4 5 5 5 5 5 5 6 5 4 5
9 7 6 6 5 5 5 6 6 5 5 5 4 3 4 4 4 5 5 5 4 4 4 3 3 3 4 4 4 4 4 4 4 4 4 4 4 5 5 6 5 5 5 5
Wind_Direction
216 211 170 161 166 165 154 166 170 213 221 251 255 237 225 176 153 147 156 160 158 156 156 151 141 140 143 141 138 138 137 142 144 135 128 124 121 119 116 118 123 123 121 117
36 45 127 103 114 142 138 154 176 186 244 261 295 106 107 112 132 153 162 167 163 159 162 159 154 153 152 150 146 139 140 143 137 132 130 127 121 115 109 103 100 101 104 104
178 324 80 129 231 170 154 158 168 197 231 313 45 84 87 94 106 125 124 137 154 157 163 165 163 161 164 159 148 145 145 145 143 139 135 131 124 116 115 110 100 94 91 92
128 117 188 240 301 144 122 75 352 206 185 142 139 107 62 59 100 110 118 126 136 145 154 154 149 147 145 144 147 146 143 144 144 141 134 128 122 119 112 104 100 94 90 90
122 149 198 272 267 136 129 324 275 163 137 126 128 70 24 29 44 70 104 127 141 152 150 143 143 142 135 136 137 136 138 143 142 139 134 128 122 116 109 103 96 89 87 89
128 149 205 225 275 309 108 283 256 162 160 157 128 78 288 23 32 48 56 80 101 110 117 128 132 136 137 141 141 147 144 136 131 131 128 124 119 111 105 103 101 96 85 81
143 177 238 247 295 80 166 226 218 167 170 166 174 196 126 49 38 42 52 55 71 89 99 110 124 129 132 136 142 135 124 117 113 115 117 117 111 110 110 105 100 94 88 78
138 165 233 291 59 172 208 218 123 139 134 132 132 111 87 70 58 55 53 51 61 79 79 83 107 122 122 126 121 115 113 111 110 108 109 110 109 107 106 107 102 97 92 82
177 199 234 294 208 275 168 140 129 124 126 132 135 129 92 72 61 60 61 53 55 73 77 71 83 113 120 113 113 115 111 109 107 102 99 103 108 111 108 105 103 100 95 90
150 245 253 359 11 10 37 86 68 122 137 133 138 128 100 77 60 60 63 64 66 75 78 71 71 84 97 106 113 112 110 107 106 102 97 91 88 92 98 102 104 103 100 97
189 235 301 313 18 8 17 48 61 56 83 131 132 126 112 93 75 71 70 68 74 84 85 80 79 81 87 101 111 107 104 102 99 98 99 92 81 70 79 71 99 110 106 104
207 209 184 216 180 75 87 73 92 90 79 85 116 121 112 102 89 86 84 80 82 84 87 85 85 84 83 93 107 109 105 101 99 101 101 101 97 82 66 77 79 84 94 102
189 159 146 139 96 89 119 110 99 95 100 95 94 106 107 102 93 88 85 84 86 86 86 87 87 84 83 89 99 104 107 107 106 106 106 105 105 106 98 75 68 72 81 92
138 124 129 142 132 104 104 101 98 93 91 94 97 99 99 97 94 90 86 87 90 89 87 88 88 85 87 94 98 100 102 106 107 105 106 107 107 107 109 110 101 78 67 82
134 145 147 130 116 108 107 108 106 103 101 96 98 102 102 101 97 92 90 92 92 88 85 86 87 85 89 97 99 101 101 103 102 101 102 104 105 104 104 104 105 103 95 80
119 112 125 129 128 125 123 122 119 116 112 106 102 101 101 101 97 90 87 92 93 90 88 88 87 88 95 99 99 97 101 111 111 109 108 107 107 109 110 110 110 111 113 116
143 148 147 141 136 132 129 127 125 121 116 113 111 108 107 104 98 92 86 84 86 86 86 91 94 95 97 102 104 106 108 114 114 110 110 113 115 117 119 120 121 120 119 124
155 147 147 147 142 134 127 122 120 118 118 117 113 108 107 107 106 102 98 94 88 78 71 85 99 100 100 103 106 110 112 113 114 115 114 113 115 116 118 120 125 124 118 109
129 125 124 127 131 128 124 120 117 113 114 115 112 108 105 104 105 104 101 97 95 90 78 91 105 103 105 113 114 111 116 117 115 114 115 117 115 119 124 128 130 132 133 132
124 125 123 120 121 122 122 120 117 114 115 116 114 111 107 105 106 104 96 88 83 103 112 108 103 102 105 115 115 114 118 121 122 122 122 125 126 128 130 134 137 140 143 146
128 127 124 122 119 118 121 124 122 119 117 117 117 117 114 110 108 107 104 96 73 93 106 108 105 108 108 115 114 116 119 122 127 131 133 133 133 134 138 142 146 150 154 158
126 126 124 122 119 117 118 119 121 120 118 115 116 117 115 111 105 93 85 105 119 116 108 107 112 119 120 116 114 117 120 123 125 129 133 138 140 144 149 154 159 165 170 176
121 122 122 122 119 116 112 114 119 122 123 124 125 126 122 118 118 118 112 105 115 120 113 115 125 124 119 114 119 123 125 128 133 139 144 148 151 154 159 165 173 180 185 193
116 116 115 113 111 112 112 112 109 110 111 112 117 125 125 118 97 84 113 127 127 121 113 125 128 126 120 118 123 128 132 137 142 145 148 150 155 162 169 176 186 195 202 207
115 114 116 119 119 119 118 113 105 103 103 102 103 106 110 118 126 130 119 123 127 120 114 125 128 126 124 128 133 138 143 152 155 155 159 164 171 178 186 193 198 205 210 215
114 114 115 117 120 123 124 120 118 119 119 114 105 102 101 99 108 113 114 120 124 123 123 122 124 122 125 133 141 149 153 156 159 165 174 178 185 190 197 204 211 216 219 223
102 103 103 100 101 112 119 123 126 131 134 131 124 122 120 117 116 120 121 122 123 122 123 125 127 129 133 140 148 155 159 163 169 176 183 188 193 201 207 211 216 221 224 227